Regional Weather Roundup
Issued by NWS Grand Forks, ND

Home | Current Version | Previous Version | Text Only | Print | Product List | Glossary Off
Versions: 1 2 3 4 5 6 7 8 9 10 11 12 13 14 15 16 17 18 19 20 21 22 23 24 25 26 27 28 29 30 31 32 33 34 35 36 37 38 39 40 41 42 43 44 45 46 47 48 49 50

000
ASUS43 KFGF 232131
RWRFGF
PRAIRIE TO PINES  WEATHER ROUNDUP
NATIONAL WEATHER SERVICE EASTERN NORTH DAKOTA/GRAND FORKS ND
400 PM CDT TUE SEP 23 2014

 **SATELLITE DATA USED TO AUGMENT SKY COVER AT AUTOMATED STATIONS**
 *****  WEATHER ACROSS EASTERN NORTH DAKOTA  *****

CITY           SKY/WX    TMP DP  RH WIND       PRES   REMARKS
GRAND FORKS    MOSUNNY   78  57  48 S20G25    29.97F
GRAND FRKS AFB MOSUNNY   76  57  52 S22G31    29.97F
GRAND FRKS NWS   N/A     77 N/A N/A S16         N/A
DEVILS LAKE    MOSUNNY   73  57  56 S21G28    29.93S
FARGO          SUNNY     74  47  38 S18G29    30.02F
WAHPETON ARPT  CLOUDY    63  52  67 S12G17    30.07R
$$

 ***** WEATHER ACROSS CENTRAL AND WESTERN NORTH DAKOTA  *****

CITY           SKY/WX    TMP DP  RH WIND       PRES   REMARKS
BISMARCK       CLOUDY    65  57  75 S13       29.93S
MINOT          SUNNY     79  57  46 SE16G23   29.85S
JAMESTOWN      CLOUDY    64  55  72 S16       29.98R
MINOT AFB      SUNNY     79  58  48 S16       29.84S
GARRISON         N/A     75  59  57 S13       29.88S
WILLISTON      SUNNY     83  54  36 VRB5      29.82F
DICKINSON      SUNNY     80  57  45 S6        29.85F
HETTINGER      SUNNY     78  56  46 S6        29.89F
$$

 *****  OTHER AIRPORT OBSERVATIONS IN OUR AREA  *****

CITY           SKY/WX    TMP DP  RH WIND       PRES   REMARKS
WALHALLA         N/A     79  59  50 S15G24    29.92F
GRAFTON AIRPOR FAIR      73  57  56 S17       29.96S
VALLEY CITY AR CLOUDY    66  55  68 S18G28    30.00S
CANDO          FAIR      75  57  53 S28       29.93R
CAVALIER APRT  FAIR      77  59  53 S18G26    29.93S
GWINNER        MOCLDY    64  52  63 S17       30.03F
ROLLA          FAIR      77  55  47 S18G30    29.91S
 ***** THE ABOVE OBSERVATIONS ARE NON NWS ARE NOT QUALITY
       CONTROLLED AND MAY MIS-REPORT RAIN FOR SNOW...
$$

  *****  WEATHER ACROSS NORTHERN MINNESOTA  *****

CITY           SKY/WX    TMP DP  RH WIND       PRES   REMARKS
FLAG ISLAND    SUNNY     64  57  77 S6        30.01S
WARROAD        SUNNY     79  57  47 S9G18     30.01F
ROSEAU         SUNNY     79  55  44 S18       30.00F
HALLOCK        SUNNY     79  57  47 S20G26    29.96S
THF RVR FALLS  MOSUNNY   73  54  49 S15       30.01F
BAUDETTE       SUNNY     75  52  44 S14       30.04F
WASKISH        SUNNY     73  54  49 S3        30.06F
CROOKSTON      MOSUNNY   77  54  44 S24       30.01S
STEPHEN NDAWN    N/A     75  59  57 S18         N/A
GREENBUSH NDAW   N/A     79  54  41 S17         N/A
$$
  *****  WEATHER ACROSS CENTRAL AND WEST MINNESOTA  *****

CITY           SKY/WX    TMP DP  RH WIND       PRES   REMARKS
FOSSTON        PTSUNNY   77  50  38 S16       30.05S
BEMIDJI        MOSUNNY   74  51  45 S9        30.06F
PARK RAPIDS    MOSUNNY   74  49  41 S18G24    30.08F
ELBOW LAKE     FAIR      63  49  60 S10       30.08F
WADENA         MOSUNNY   68  54  60 S16G23    30.09S
DETROIT LAKES  MOSUNNY   68  54  60 S13G21    30.08S
MOORHEAD       SUNNY     72  48  43 S21       30.05S
FERGUS FALLS   PTSUNNY   64  46  52 S15       30.09S
MORRIS MN      CLOUDY    68  52  56 SE17      30.07F
STAPLES        MOSUNNY   72  50  46 S13G18    30.10F
$$
  *****  WEATHER ELSEWHERE ACROSS MINNESOTA  *****

CITY           SKY/WX    TMP DP  RH WIND       PRES   REMARKS
DULUTH         SUNNY     73  47  39 SW15G23   30.16F
INTRNTL FALLS  SUNNY     73  51  46 S8        30.08F
ELY            SUNNY     73  45  35 S8G16     30.14F
CLOQUET        SUNNY     70  48  46 S9        30.16S
WHEATON        CLOUDY    57  54  88 SE8       30.08F
BRAINERD       MOSUNNY   70  50  49 S12       30.12F
HIBBING        SUNNY     74  49  41 S8        30.14F
ALEXANDRIA     CLOUDY    66  54  65 S12       30.12F
SAINT CLOUD    PTSUNNY   75  51  43 SE14      30.12F
MINNEAPOLIS    PTSUNNY   73  51  46 S13       30.15F
$$

  *****  WEATHER ACROSS SOUTH DAKOTA  *****

CITY           SKY/WX    TMP DP  RH WIND       PRES   REMARKS
SIOUX FALLS    CLOUDY    62  57  83 S14       30.04F
BROOKINGS      NOT AVBL
WATERTOWN      LGT RAIN  58  55  90 S14       30.03F
HURON          CLOUDY    60  56  86 SE13G26   29.98F
SISSETON         N/A     61  57  87 SE7       30.04F
ABERDEEN       LGT RAIN  58  55  90 SE12      29.99F FOG
MITCHELL       CLOUDY    60  57  89 S21G28    29.99F
PIERRE         PTSUNNY   70  57  63 E17       29.88S
MOBRIDGE       CLOUDY    64  57  78 SE13      29.91S
RAPID CITY     MOSUNNY   81  53  37 NE7       29.92F
$$

  *****  SOME WEATHER IN NEARBY STATES *****

CITY           SKY/WX    TMP DP  RH WIND       PRES   REMARKS
GLASGOW MT     SUNNY     82  51  34 W14       29.85S
GREAT FALLS MT MOSUNNY   80  44  27 SW9       29.97F
CHEYENNE WY    PTSUNNY   72  39  30 NW20G26   30.16S
SCOTTSBLUFF NE SUNNY     84  45  25 W13G21    29.99F
OMAHA NE       PTSUNNY   72  55  55 S16       30.09F
DES MOINES IA  CLOUDY    72  52  49 S14       30.18F
DAVENPORT IA   SUNNY     74  42  31 SE8       30.25F
CHICAGO IL     MOSUNNY   72  46  39 SW3       30.28F
EAU CLAIRE WI  MOSUNNY   73  50  44 S12       30.20F
LA CROSSE WI   MOSUNNY   74  51  44 S10       30.21F
$$

  *****  SOME NATIONAL WEATHER *****

CITY           SKY/WX    TMP DP  RH WIND       PRES   REMARKS
LA GUARDIA NY  PTSUNNY   72  42  34 N5        30.30S
RALEIGH NC     CLOUDY    61  50  67 N7        30.29F
ATLANTA GA     MOSUNNY   73  55  53 E15       30.18S
NEW ORLEANS LA MOSUNNY   84  54  35 N12       30.04F
OKLAHOMA CITY  SUNNY     82  53  36 SE10      30.11F
ALBUQUERQUE NM MOSUNNY   77  55  46 SW7       30.19F
SALT LAKE CITY MOSUNNY   82  45  27 VRB3      30.12F
LOS ANGELES CA MOSUNNY   73  63  70 W13       29.94F
BOISE ID       CLOUDY    86  46  24 W5        29.96F
SEATTLE WA     CLOUDY    65  60  84 W5        29.83F
$$

*** WEATHER ACROSS MANITOBA...SASKATCHEWAN AND ONTARIO ***
                ***ONTARIO***

CITY           SKY/WX    TMP DP  RH WIND       PRES   REMARKS
GERALDTON      MOSUNNY   68  57  68 SE8       30.17F
THUNDER BAY    SUNNY     75  50  41 S8        30.15F
SIOUX LOOKOUT  MOSUNNY   73  50  43 SW8G17    30.07F
TORONTO        MOSUNNY   72  52  49 NW8       30.30S
BIG TROUT LK   SUNNY     66  54  63 S10       29.87F HAZE
PICKLE LAKE    PTSUNNY   75  50  41 SW13G24   30.02F
DRYDEN         SUNNY     73  48  40 S15G23    30.07F
KENORA         MOSUNNY   73  52  46 S13G18    30.03F
$$
                *** MANITOBA***

CITY           SKY/WX    TMP DP  RH WIND       PRES   REMARKS
BRANDON        SUNNY     81  59  47 SW17      29.85F
DAUPHIN        SUNNY     81  59  47 SW15G23   29.78F
ISLAND LAKE    MOSUNNY   79  50  36 SW9       29.79F
PILOT MOUND      N/A     77  54  44 S25G33      N/A
THE PAS        PTSUNNY   82  55  39 W13       29.64F
THOMPSON       PTSUNNY   79  55  44 SW13      29.61F
WINNIPEG       MOSUNNY   79  57  47 S21G30    29.92F
LYNN LAKE        N/A     73  50  43 MISG      29.65R
CHURCHILL      PTSUNNY   64  52  63 SW14G21   29.50
GILLAM         PTSUNNY   79  52  38 SW16      29.59F
$$
                ***SASKATCHEWAN***

CITY           SKY/WX    TMP DP  RH WIND       PRES   REMARKS
ESTEVAN        MOSUNNY   81  57  44 SE6       29.82F
KINDERSLEY     PTSUNNY   77  46  33 NW17      29.83
LLOYDMINSTER   CLOUDY    72  50  46 NW10      29.84S
PRINCE ALBERT  PTSUNNY   82  52  34 W8        29.70S
REGINA         MOSUNNY   82  54  36 SW9       29.77F
YORKTON        SUNNY     81  52  36 S10       29.77S
N. BATTLEFORD  SUNNY     75  48  38 NW16G23   29.80S
LA RONGE       PTSUNNY   77  54  44 N8        29.71
SASKATOON      SUNNY     82  48  30 W6        29.76S
SWIFT CURRENT  SUNNY     81  48  32 W10       29.82S
$$
NOTE: THESE ARE AUTOMATED STATIONS WITH LIMITED QUALITY CONTROL
      "FAIR" INDICATES FEW OR NO CLOUDS BELOW 12,000 FEET WITH NO
      SIGNIFICANT WEATHER AND/OR OBSTRUCTIONS TO VISIBILITY.
      SKY/WX - SKY CONDITION AND SIGNIFICANT WEATHER.
      TMP - AIR TEMPERATURE.    DP   - DEWPOINT TEMPERATURE.
      RH  - RELATIVE HUMIDITY.  PRES - PRESSURE.
      HX  - HEAT INDEX.         WCI  - WIND CHILL INDEX.
$


USA.gov is the U.S. government's official web portal to all federal, state and local government web resources and services.